DateTimeUTC,F1_A11,F1_S11,BsB_S11,BsG_S11,BsR_S11,BbsB_S11,BbsG_S11,BbsR_S11,BaB_A11,BaG_A11,BaR_A11,Tu_S11,T_S11,Uu_S11,U_S11,P_S11,T1_A11
2021-07-31T01:00:00Z,00000200,20000000,,,,,,,-000.01,-000.18,0000.19,19.8,26.9,02.9,01.9,0681.9,31.1
2021-07-31T01:01:00Z,00000200,20000000,,,,,,,0000.16,-000.07,0000.12,19.8,26.9,02.9,01.9,0681.9,31.1
2021-07-31T01:02:00Z,00000200,20000000,,,,,,,-000.03,0000.26,0000.06,19.7,26.9,02.9,01.9,0681.9,31.2
2021-07-31T01:03:00Z,00000200,60000000,,,,,,,0000.87,0000.77,0000.83,19.7,26.9,02.9,01.9,0681.9,31.2
2021-07-31T01:04:00Z,00000200,40000000,0003.67,0002.46,0001.45,0000.98,0000.16,0000.53,0000.68,0000.82,0000.10,19.9,26.7,03.1,02.1,0682.8,31.2
2021-07-31T01:05:00Z,00000200,00000000,0003.21,0002.16,0001.50,0000.80,0000.34,0000.45,0000.95,0001.05,0000.94,19.9,26.6,03.1,02.1,0682.9,31.1
2021-07-31T01:06:00Z,00000200,00000000,0003.69,0003.04,0001.39,0000.41,0000.56,0000.24,0000.75,0000.46,0000.43,19.9,26.6,03.1,02.0,0682.9,31.1
2021-07-31T01:07:00Z,00000200,00010000,0003.90,0002.67,0001.70,0000.85,0000.38,0000.39,0001.12,0000.93,0000.73,19.9,26.6,03.1,02.1,0682.9,31.2
2021-07-31T01:08:00Z,00000200,00000000,0004.55,0002.62,0001.65,0000.48,0000.57,0000.45,0000.96,0000.91,0000.18,19.9,26.6,03.1,02.1,0682.9,31.1
2021-07-31T01:09:00Z,00000200,00000000,0003.77,0002.91,0001.53,0000.62,0000.27,0000.11,0000.71,0000.82,0000.70,19.9,26.6,03.1,02.0,0682.9,31.1
2021-07-31T01:10:00Z,00000200,00000000,0003.68,0002.75,0001.43,0000.96,0000.57,0000.69,0001.15,0001.07,0000.84,19.9,26.5,03.0,02.0,0682.9,31.2
2021-07-31T01:11:00Z,00000200,00000000,0004.33,0002.47,0001.85,0001.14,0000.37,0000.43,0001.01,0000.72,0000.61,19.9,26.5,03.0,02.0,0682.9,31.2
2021-07-31T01:12:00Z,00000200,00000000,0004.16,0002.86,0001.48,0001.16,0000.49,-000.10,0000.89,0000.90,0000.73,19.9,26.5,03.1,02.0,0682.9,31.2
2021-07-31T01:13:00Z,00000200,00000000,0004.49,0002.23,0001.35,0001.13,0000.45,0000.40,0001.31,0000.70,0000.75,19.9,26.5,03.0,02.0,0682.9,31.1
2021-07-31T01:14:00Z,00000200,00000000,0002.88,0002.34,0001.31,0000.18,0000.39,0000.59,0000.61,0000.88,0000.26,19.9,26.5,03.1,02.1,0682.9,31.1
2021-07-31T01:15:00Z,00000200,00000000,0003.97,0002.12,0001.33,0000.03,0000.34,0000.51,0000.80,0000.93,0000.27,19.9,26.5,03.1,02.1,0682.9,31.1
2021-07-31T01:16:00Z,00000200,00000000,0003.39,0002.26,0001.01,0000.27,0000.21,0000.34,0000.80,0000.41,0000.83,19.9,26.5,03.1,02.1,0682.8,31.1
2021-07-31T01:17:00Z,00000200,00000000,0003.74,0001.92,0001.28,0000.71,0000.17,0000.38,0000.47,0000.76,0000.53,19.9,26.5,03.0,02.0,0682.8,31.1
2021-07-31T01:18:00Z,00000200,00000000,0002.65,0001.88,0000.88,-000.20,0000.38,0000.40,0000.75,0000.32,0000.24,19.8,26.5,03.1,02.1,0682.8,31.1
2021-07-31T01:19:00Z,00000200,00000000,0003.39,0002.42,0001.47,0000.83,0000.53,0000.15,0000.96,0000.84,0000.60,19.8,26.5,03.0,02.0,0682.8,31.1
2021-07-31T01:20:00Z,00000200,00000000,0003.74,0002.46,0001.20,0000.58,0000.48,0000.34,0000.54,0000.60,0000.21,19.8,26.5,02.9,01.9,0682.8,31.1
2021-07-31T01:21:00Z,00000200,00000000,0003.03,0002.82,0001.19,0000.44,0000.29,0000.44,0001.04,0000.69,0000.75,19.8,26.4,02.8,01.9,0682.8,31.1
2021-07-31T01:22:00Z,00000200,00000000,0004.20,0002.29,0000.92,0000.00,0000.41,0000.45,0000.93,0000.72,0000.59,19.8,26.4,02.9,01.9,0682.9,31.1
2021-07-31T01:23:00Z,00000200,00000000,0003.65,0002.50,0001.77,0000.28,0000.28,0000.41,0001.05,0001.12,0000.51,19.8,26.4,02.9,01.9,0682.8,31.2
2021-07-31T01:24:00Z,00000200,00000000,0004.45,0002.97,0001.56,0000.89,0000.57,0000.66,0000.91,0000.80,0000.66,19.8,26.4,02.9,01.9,0682.8,31.1
2021-07-31T01:25:00Z,00000200,00000000,0004.13,0002.21,0001.50,0000.58,0000.34,0000.35,0000.91,0000.83,0000.51,19.8,26.4,02.8,01.9,0682.8,31.1
2021-07-31T01:26:00Z,00000200,00000000,0003.35,0002.62,0001.20,0000.81,0000.47,0000.54,0000.70,0001.00,0000.43,19.8,26.4,02.7,01.8,0682.8,31.1
2021-07-31T01:27:00Z,00000200,00000000,0003.72,0002.09,0001.11,0000.61,0000.50,0000.53,0001.16,0000.70,0000.98,19.8,26.4,02.8,01.9,0682.8,31.1
2021-07-31T01:28:00Z,00000200,00000000,0002.72,0002.43,0001.32,0000.94,0000.29,0000.28,0000.75,0000.76,0000.47,19.8,26.4,02.8,01.9,0682.8,31.1
2021-07-31T01:29:00Z,00000200,00000000,0001.70,0002.20,0001.05,0000.77,0000.11,0000.14,0000.72,0000.49,0000.50,19.8,26.4,02.8,01.9,0682.8,31.1
2021-07-31T01:30:00Z,00000200,00000000,0003.70,0001.78,0000.87,0000.68,0000.39,0000.38,0000.87,0000.82,0000.51,19.8,26.4,02.7,01.8,0682.8,31.1
2021-07-31T01:31:00Z,00000200,00000000,0003.37,0001.70,0000.97,0000.68,0000.09,0000.18,0000.32,0000.50,0000.54,19.8,26.4,02.8,01.9,0682.8,31.1
2021-07-31T01:32:00Z,00000200,00000000,0003.11,0001.86,0000.90,0000.14,0000.15,0000.39,0000.74,0000.65,0000.44,19.8,26.4,02.8,01.9,0682.8,31.1
2021-07-31T01:33:00Z,00000200,00000000,0003.22,0001.85,0001.11,0000.30,0000.45,0000.39,0000.52,0000.26,0000.29,19.8,26.3,02.8,01.9,0682.8,31.1
2021-07-31T01:34:00Z,00000200,00000000,0002.89,0001.64,0001.03,0000.55,0000.63,0000.43,0000.86,0000.83,0000.53,19.8,26.4,02.8,01.9,0682.8,31.1
2021-07-31T01:35:00Z,00000200,00000000,0002.02,0002.01,0001.13,0001.15,0000.52,0000.30,0000.41,0000.54,0000.15,19.7,26.3,02.8,01.9,0682.8,31.1
2021-07-31T01:36:00Z,00000200,00000000,0002.89,0001.54,0000.91,0000.62,0000.34,0000.31,0000.74,0000.60,0000.35,19.8,26.3,02.7,01.8,0682.8,31.2
2021-07-31T01:37:00Z,00000200,00000000,0003.24,0001.37,0000.81,0000.59,0000.59,0000.22,0000.77,0000.50,0000.56,19.7,26.3,02.7,01.8,0682.8,31.1
2021-07-31T01:38:00Z,00000200,00000000,0002.00,0001.75,0000.93,0000.89,0000.27,0000.08,0000.71,0000.68,0000.39,19.7,26.3,02.6,01.7,0682.8,31.1
2021-07-31T01:39:00Z,00000200,00000000,0001.90,0001.45,0000.73,0000.51,0000.39,0000.37,0000.59,0000.49,0000.58,19.7,26.3,02.6,01.8,0682.8,31.1
2021-07-31T01:40:00Z,00000200,00000000,0002.60,0001.42,0000.98,0000.59,0000.29,0000.50,0000.43,0000.38,0000.19,19.7,26.3,02.6,01.7,0682.8,31.1
2021-07-31T01:41:00Z,00000200,00000000,0002.50,0001.45,0000.72,0000.79,0000.27,0000.46,0000.45,0000.39,0000.30,19.7,26.3,02.6,01.8,0682.8,31.1
2021-07-31T01:42:00Z,00000200,00000000,0001.47,0001.10,0000.52,0000.36,0000.03,0000.12,0000.59,0000.56,0000.30,19.7,26.3,02.8,01.8,0682.8,31.1
2021-07-31T01:43:00Z,00000200,00000000,0001.93,0001.25,0000.29,0000.34,0000.00,-000.23,0000.28,0000.72,0000.26,19.7,26.3,02.6,01.8,0682.8,31.1
2021-07-31T01:44:00Z,00000200,00000000,0001.12,0001.38,0000.35,-000.10,0000.32,-000.00,0000.57,0000.01,0000.30,19.7,26.3,02.6,01.7,0682.8,31.1
2021-07-31T01:45:00Z,00000200,00000000,0001.67,0001.43,0000.79,0000.68,0000.45,0000.21,0000.48,0000.38,0000.22,19.7,26.3,02.6,01.8,0682.8,31.1
2021-07-31T01:46:00Z,00000200,00000000,0002.89,0001.35,0000.72,0000.56,0000.38,0000.36,0000.31,0000.37,0000.20,19.7,26.2,02.6,01.7,0682.8,31.1
2021-07-31T01:47:00Z,00000200,00000000,0002.39,0001.22,0000.77,0000.57,0000.34,-000.08,0000.54,0000.38,0000.36,19.7,26.2,02.6,01.7,0682.8,31.1
2021-07-31T01:48:00Z,00000200,00000000,0002.21,0001.16,0000.82,0000.10,-000.12,0000.30,0000.47,0000.57,0000.63,19.7,26.2,02.6,01.8,0682.8,31.2
2021-07-31T01:49:00Z,00000200,00000000,0002.74,0001.27,0000.85,0000.03,0000.05,0000.60,0000.69,0000.03,0000.08,19.7,26.2,02.6,01.7,0682.8,31.2
2021-07-31T01:50:00Z,00000200,00000000,0001.82,0001.11,0000.70,0000.44,0000.45,0000.25,0000.37,0001.04,0000.57,19.7,26.2,02.5,01.7,0682.8,31.1
2021-07-31T01:51:00Z,00000200,00000000,0002.37,0001.44,0001.06,0000.76,0000.22,0000.52,0000.47,0000.43,0000.15,19.7,26.2,02.5,01.7,0682.8,31.1
2021-07-31T01:52:00Z,00000200,00000000,0001.59,0001.13,0000.53,0000.08,0000.36,0000.20,0000.33,0000.15,0000.28,19.7,26.2,02.6,01.7,0682.7,31.1
2021-07-31T01:53:00Z,00000200,00000000,0000.75,0001.05,0000.66,0000.30,0000.24,0000.36,0000.18,0000.35,0000.05,19.6,26.2,02.7,01.8,0682.7,31.1
2021-07-31T01:54:00Z,00000200,00000000,0001.85,0000.73,0000.12,0000.23,-000.03,-000.12,0000.60,0000.56,0000.57,19.6,26.2,02.6,01.7,0682.7,31.1
2021-07-31T01:55:00Z,00000200,00000000,0001.66,0000.85,0000.44,0001.01,0000.36,0000.34,0000.57,0000.41,0000.25,19.6,26.2,02.6,01.8,0682.7,31.1
2021-07-31T01:56:00Z,00000200,00000000,0000.57,0000.66,0000.46,0000.27,0000.17,0000.19,0000.23,0000.15,0000.18,19.6,26.2,02.7,01.8,0682.7,31.1
2021-07-31T01:57:00Z,00000200,40000000,,,,,,,0000.10,0000.02,0000.05,19.7,26.2,03.1,02.1,0682.8,31.1
2021-07-31T01:58:00Z,00000200,60000000,,,,,,,-000.07,-000.13,-000.07,19.3,26.3,02.7,01.7,0681.7,31.1
2021-07-31T01:59:00Z,00000200,20000000,,,,,,,-000.05,-000.09,0000.12,19.3,26.4,02.6,01.7,0681.7,31.1
